STARLINK-32431, 61256

Orbit data source: Space-Track

STARLINK-32431, 61256 is a payload satellite owned by SpaceX/Seattle (US) in LEO that was launched on Wed, 25 Sep 2024 UTC via an FALCON 9 launch vehicle from the Air Force Western Test Range (AFWTR). Payload-class satellites include a variety of spacecraft equipped with specific instruments for various scientific and technological missions. These include communications satellites like Starlink; space stations such as the ISS; scientific satellites like the Hubble; Earth observation satellites from companies like Planet Labs, Umbra, and HawkEye 360; GPS; miniature CubeSats for education and research; and military/defense satellites.

Loading next visibility...
Identifier
61256, 2024-175P
Orbit
LEO
Country
Flag of USUS
Related business
Manufacturer
SpaceX/Seattle
Mission
Operational Commercial Communications
Bus & Motor
STARLINK V2M, Unknown motor
Mass
730 kg wet, ~700 kg dry
Launch date (UTC)
2024-09-25 (1 year ago)
Launch vehicle
FALCON 9
Launch site
Air Force Western Test Range (AFWTR)
Object type
Payload
Rocket body
Debris
Shape & HBR
Box + 2 Pan, 14.5 m
Radar Cross Section
33.884 m², Large (>1 m²)

Expand to show TLE details & history
Last TLE update: 2 days ago

TLE from 2 days ago
0 STARLINK-32431
1 61256U 24175P   25260.47530290  .00007287  00000-0  25823-3 0  9991
2 61256  53.1622 278.6038 0000881  80.9147 279.1954 15.30158281 54933
Epoch: 2025-09-17T11:24Z
TLE epoch observation values (Epoch: 2025-09-17T11:24:26.17Z)
Latitude
0.00002°
Longitude
110.84405°
Altitude
476.143 km
Speed
7.629 km/s
True Right ascension
18h 34m 24s
True Declination
0° 00' 00"
Sunlit
Object was in daylight at epoch
Visualization orbit readout
Latitude
Unknown
Longitude
Unknown
Altitude
Unknown
Speed
Unknown
Apparent Right ascension
Unknown
Apparent Declination
Unknown
Sunlit
N/A
Visualization observer readout
Local Sidereal Time
16:46:13
Azimuth
Unknown
Elevation
Unknown
Doppler factor
Unknown
Orbital elements
Apogee altitude
476.2 km
Perigee altitude
474.992 km
Semi-major axis
6,853.733 km
Eccentricity
0.00009
Inclination
53.1622°
RAAN
278.6038°
Arg. of periapsis
80.9147°
True anomaly
279.18543°
Mean anomaly
279.1954°
Eccentric anomaly
279.19042°
Mean motion
3.82518 °/min
Orbital period
94.11 mins
BSTAR
0.00025823
Loading maneuver chart data...
Computing Atmospheric mass density...
Loading historical data...
Loading historical data...
Loading historical data...
Loading historical data...
Loading historical data...
Loading historical data...
Loading historical data...

Documentation

Showing up to 5 results
|